Weather Roundup
Issued by NWS

Home | Current Version | Previous Version | Text Only | Print | Product List | Glossary On
Versions: 1 2 3 4 5 6 7 8 9 10 11 12 13 14 15 16 17 18 19 20 21 22 23 24 25 26 27 28 29 30 31 32 33 34 35 36 37 38 39 40 41 42 43 44 45 46 47 48 49 50
000
NZUS93 KARX 221259
HRRWXR

CURRENT HOURLY OBSERVATIONS ACROSS
MUCH OF THE UPPER MISSISSIPPI VALLEY
NATIONAL WEATHER SERVICE LA CROSSE WI
800 AM CDT MON SEP 22 2014


...SOUTHEAST MINNESOTA...


CITY           SKY/WX    TMP DP  RH WIND       PRES   REMARKS
ROCHESTER      SUNNY     46  45  96 SW5       30.28R
ROCHESTER/MAYO FAIR      48  46  94 CALM      30.28R
WINONA         MOSUNNY   46  46 100 CALM      30.27S
AUSTIN         PTSUNNY   45  43  93 CALM      30.29R FOG
ALBERT LEA     CLEAR     48  48 100 CALM      30.29S
DODGE CENTER   FOG       45  45 100 W6        30.28R VSB 1/4
PRESTON        SUNNY     46  46 100 S3        30.28S
OWATONNA       CLEAR     45  43  93 CALM      30.29R FOG
FARIBAULT      CLEAR     50  45  81 SW5       30.28R
$$

...ELSEWHERE IN MINNESOTA...


CITY           SKY/WX    TMP DP  RH WIND       PRES   REMARKS
MINNEAPOLIS    CLEAR     50  48  93 SW3       30.27R
INTNL FALLS    FOG       44  43  96 SW3       30.14S VSB 1/4
DULUTH         SUNNY     50  46  86 W8        30.19R
RED WING       FOG       46  45  93 CALM      30.26R VSB<1/4
REDWOOD FALLS  CLEAR     45  43  93 CALM      30.28R
MANKATO        CLEAR     45  39  81 W5        30.29R
WORTHINGTON    CLEAR     48  46  93 SW7       30.30S
FAIRMONT       CLEAR     46  43  87 CALM      30.29S
$$

...SOUTHWEST WISCONSIN...


CITY           SKY/WX    TMP DP  RH WIND       PRES   REMARKS
LA CROSSE      FOG       48  47  96 S6        30.27S VSB 1/4
PRAIRIE DU CHI FOG       48  47  95 CALM      30.29R VSB 1/4
BOSCOBEL       FOG       45  44  97 S5        30.30R VSB<1/4
LONE ROCK      NOT AVBL
PLATTEVILLE    SUNNY     42  41  97 CALM      30.30R
FORT MC COY    SUNNY     35  35 100 CALM      30.27S
VIROQUA        FAIR      45  45 100 SW3       30.27R
WIS DELLS      SUNNY     41  39  94 CALM      30.27R
$$

...ELSEWHERE IN WISCONSIN...


CITY           SKY/WX    TMP DP  RH WIND       PRES   REMARKS
MILWAUKEE      SUNNY     49  41  74 CALM      30.26R
MADISON        SUNNY     45  41  86 CALM      30.27S
GREEN BAY      SUNNY     42  41  96 CALM      30.23R
EAU CLAIRE     SUNNY     45  44  97 SW3       30.24R FOG
BLACK RVR FLS  FOG       39  39 100 CALM      30.25S VSB<1/4
MEDFORD        SUNNY     39  39 100 CALM      30.22S FOG
WAUSAU         SUNNY     44  41  89 CALM      30.22S
WIS RAPIDS     SUNNY     43  42  97 CALM      30.25S
MARSHFIELD     MOSUNNY   47  44  90 W6        30.23S
RICE LAKE        N/A     40  40  97 CALM      30.25R FOG
$$

...NORTHEAST IOWA...


CITY           SKY/WX    TMP DP  RH WIND       PRES   REMARKS
WATERLOO       SUNNY     43  42  97 CALM      30.29S
DUBUQUE        SUNNY     41  40  96 SW3       30.30R
DECORAH        SUNNY     43  43 100 CALM      30.28R
MASON CITY     CLEAR     46  45  96 W9        30.31R
CHARLES CITY   SUNNY     45  45 100 CALM      30.30R FOG
OELWEIN        FOG       41  41 100 SW3       30.30R VSB 1/2
$$

...ELSEWHERE IN IOWA...


CITY           SKY/WX    TMP DP  RH WIND       PRES   REMARKS
DES MOINES     CLEAR     50  47  89 NW5       30.31S
IOWA CITY      SUNNY     47  46  97 CALM      30.32R
FORT DODGE     CLEAR     45  43  93 CALM      30.32S
MARSHALLTOWN   FOG       43  43 100 CALM      30.30R VSB 1/4
CEDAR RAPIDS   SUNNY     45  45 100 N6        30.30R
$$

...NORTHERN ILLINOIS...


CITY           SKY/WX    TMP DP  RH WIND       PRES   REMARKS
CHICAGO-OHARE  MOSUNNY   48  40  73 N6        30.26R
DUPAGE         SUNNY     47  41  80 NW5       30.27R
CHICAGO-MIDWAY MOSUNNY   51  43  74 NW9       30.26R
MOLINE         SUNNY     46  44  93 CALM      30.30R
ROCKFORD       SUNNY     46  42  86 CALM      30.30R
STERLING       SUNNY     48  43  81 CALM      30.29R
PEORIA         SUNNY     50  45  83 CALM      30.29R
$$

NOTE: "FAIR" INDICATES FEW OR NO CLOUDS BELOW 12,000 FEET WITH NO
SIGNIFICANT WEATHER AND/OR OBSTRUCTIONS TO VISIBILITY. WIND
SPEEDS ARE IN MILES-PER-HOUR.



USA.gov is the U.S. government's official web portal to all federal, state and local government web resources and services.